| time (UTC) | temp C | wind direction | speed KPH | gust KPH | rain 1hr cm | rain 24hr cm | rain mn cm | humidity % | barometer mb |
| 20260507000006 | 11 | 219 | 3.2 | 9.7 | 0.15 | 1.47 | 1.47 | 93 | 1005.7 |
| 20260506234508 | 12 | 227 | 1.6 | 14.5 | 0.15 | 1.47 | 1.47 | 93 | 1005.6 |
| 20260506233013 | 14 | 9 | 6.4 | 12.9 | 0.23 | 1.40 | 1.40 | 96 | 1005.2 |
| 20260506231520 | 14 | 238 | 0.0 | 6.4 | 0.28 | 1.37 | 1.37 | 96 | 1005.0 |
| 20260506230022 | 14 | 313 | 0.0 | 3.2 | 0.28 | 1.32 | 1.32 | 96 | 1005.1 |
| 20260506224507 | 14 | 313 | 1.6 | 6.4 | 0.28 | 1.32 | 1.32 | 96 | 1005.0 |
| 20260506223008 | 14 | 18 | 1.6 | 4.8 | 0.10 | 1.17 | 1.17 | 97 | 1005.0 |
| 20260506221512 | 15 | 150 | 0.0 | 3.2 | 0.05 | 1.09 | 1.09 | 97 | 1005.0 |
| 20260506220018 | 15 | 150 | 0.0 | 3.2 | 0.08 | 1.12 | 1.07 | 97 | 1005.1 |
| 20260506214523 | 15 | 124 | 0.0 | 3.2 | 0.20 | 1.14 | 1.07 | 97 | 1005.1 |
| 20260506213004 | 15 | 247 | 1.6 | 4.8 | 0.36 | 1.22 | 1.07 | 97 | 1005.1 |
| 20260506211508 | 15 | 183 | 1.6 | 8.0 | 0.41 | 1.22 | 1.04 | 96 | 1005.3 |
| 20260506210030 | 14 | 174 | 0.0 | 3.2 | 0.38 | 1.17 | 0.99 | 96 | 1005.2 |
| 20260506204523 | 14 | 174 | 0.0 | 1.6 | 0.28 | 1.04 | 0.86 | 96 | 1005.4 |
| 20260506203003 | 14 | 171 | 0.0 | 4.8 | 0.20 | 0.89 | 0.71 | 96 | 1005.5 |
| 20260506201510 | 15 | 185 | 0.0 | 4.8 | 0.18 | 0.81 | 0.64 | 96 | 1005.6 |
| 20260506200012 | 15 | 84 | 1.6 | 4.8 | 0.20 | 0.79 | 0.61 | 96 | 1005.8 |
| 20260506194518 | 15 | 183 | 1.6 | 3.2 | 0.20 | 0.76 | 0.58 | 96 | 1006.1 |
| 20260506193036 | 15 | 249 | 0.0 | 4.8 | 0.15 | 0.69 | 0.51 | 96 | 1006.2 |
| 20260506191507 | 15 | 240 | 0.0 | 4.8 | 0.13 | 0.64 | 0.46 | 95 | 1006.2 |
| 20260506190010 | 15 | 216 | 1.6 | 9.7 | 0.13 | 0.58 | 0.41 | 95 | 1006.5 |
| 20260506184516 | 15 | 161 | 1.6 | 12.9 | 0.15 | 0.56 | 0.38 | 95 | 1006.5 |
| 20260506183021 | 15 | 175 | 1.6 | 8.0 | 0.20 | 0.53 | 0.36 | 94 | 1006.8 |
| 20260506181536 | 15 | 194 | 1.6 | 6.4 | 0.23 | 0.51 | 0.33 | 94 | 1007.1 |
| 20260506180010 | 15 | 188 | 1.6 | 4.8 | 0.23 | 0.46 | 0.28 | 94 | 1007.3 |
| 20260506174510 | 15 | 128 | 1.6 | 4.8 | 0.23 | 0.41 | 0.23 | 93 | 1007.3 |
| 20260506173024 | 15 | 11 | 0.0 | 3.2 | 0.15 | 0.33 | 0.15 | 91 | 1007.4 |
| 20260506171528 | 16 | 11 | 0.0 | 3.2 | 0.10 | 0.28 | 0.10 | 89 | 1007.4 |
| 20260506170026 | 16 | 146 | 0.0 | 3.2 | 0.05 | 0.23 | 0.05 | 89 | 1007.6 |
| 20260506164511 | 16 | 250 | 0.0 | 1.6 | 0.00 | 0.18 | 0.00 | 87 | 1007.5 |
| 20260506163017 | 17 | 250 | 0.0 | 3.2 | 0.00 | 0.18 | 0.00 | 83 | 1007.6 |
| 20260506161521 | 16 | 250 | 0.0 | 4.8 | 0.00 | 0.18 | 0.00 | 83 | 1007.7 |
| 20260506160024 | 16 | 212 | 0.0 | 3.2 | 0.00 | 0.18 | 0.00 | 83 | 1007.9 |
| 20260506154529 | 16 | 93 | 0.0 | 3.2 | 0.00 | 0.18 | 0.00 | 83 | 1008.6 |
| 20260506153021 | 16 | 93 | 0.0 | 1.6 | 0.00 | 0.18 | 0.00 | 82 | 1009.0 |
| 20260506151519 | 16 | 86 | 1.6 | 6.4 | 0.00 | 0.18 | 0.00 | 79 | 1008.7 |
| 20260506150022 | 16 | 138 | 1.6 | 6.4 | 0.00 | 0.18 | 0.00 | 79 | 1008.7 |
| 20260506144526 | 16 | 160 | 1.6 | 6.4 | 0.00 | 0.18 | 0.00 | 80 | 1008.7 |
| 20260506143029 | 16 | 160 | 0.0 | 3.2 | 0.00 | 0.18 | 0.00 | 80 | 1008.9 |
| 20260506141517 | 15 | 226 | 0.0 | 3.2 | 0.00 | 0.18 | 0.00 | 80 | 1008.8 |
| 20260506140023 | 15 | 221 | 0.0 | 3.2 | 0.00 | 0.18 | 0.00 | 81 | 1008.8 |
| 20260506134523 | 15 | 140 | 0.0 | 3.2 | 0.00 | 0.18 | 0.00 | 81 | 1008.8 |
| 20260506133025 | 15 | 114 | 0.0 | 1.6 | 0.00 | 0.18 | 0.00 | 81 | 1009.1 |
| 20260506131528 | 15 | 114 | 0.0 | 3.2 | 0.00 | 0.18 | 0.00 | 82 | 1009.4 |
| 20260506130026 | 14 | 114 | 0.0 | 3.2 | 0.00 | 0.18 | 0.00 | 82 | 1009.3 |
| 20260506124522 | 14 | 114 | 0.0 | 3.2 | 0.00 | 0.18 | 0.00 | 83 | 1009.1 |
| 20260506123026 | 14 | 114 | 0.0 | 3.2 | 0.00 | 0.18 | 0.00 | 82 | 1008.9 |
| 20260506121525 | 14 | 114 | 0.0 | 3.2 | 0.00 | 0.18 | 0.00 | 83 | 1009.4 |
| 20260506120018 | 13 | 114 | 0.0 | 1.6 | 0.00 | 0.18 | 0.00 | 83 | 1009.5 |
| 20260506114503 | 13 | 114 | 0.0 | 3.2 | 0.00 | 0.18 | 0.00 | 84 | 1009.5 |
| 20260506113006 | 13 | 114 | 0.0 | 3.2 | 0.00 | 0.18 | 0.00 | 86 | 1009.3 |
| 20260506111507 | 12 | 38 | 0.0 | 3.2 | 0.00 | 0.18 | 0.00 | 89 | 1009.5 |
| 20260506110015 | 12 | 38 | 0.0 | 1.6 | 0.00 | 0.18 | 0.00 | 89 | 1009.3 |
| 20260506104540 | 12 | 38 | 0.0 | 1.6 | 0.00 | 0.18 | 0.00 | 89 | 1009.4 |
| 20260506103007 | 12 | 38 | 0.0 | 1.6 | 0.00 | 0.18 | 0.00 | 89 | 1009.7 |
| 20260506101508 | 12 | 38 | 0.0 | 1.6 | 0.00 | 0.18 | 0.00 | 87 | 1009.6 |
| 20260506100009 | 12 | 38 | 0.0 | 3.2 | 0.00 | 0.18 | 0.00 | 86 | 1009.2 |
| 20260506094514 | 12 | 38 | 0.0 | 3.2 | 0.00 | 0.18 | 0.00 | 85 | 1009.0 |
| 20260506093020 | 13 | 38 | 3.2 | 4.8 | 0.00 | 0.18 | 0.00 | 85 | 1009.0 |
| 20260506091506 | 13 | 38 | 0.0 | 4.8 | 0.00 | 0.18 | 0.00 | 85 | 1009.4 |
| 20260506090007 | 13 | 38 | 1.6 | 4.8 | 0.00 | 0.18 | 0.00 | 84 | 1009.2 |
| 20260506084514 | 13 | 38 | 1.6 | 4.8 | 0.00 | 0.18 | 0.00 | 84 | 1009.3 |
| 20260506083034 | 13 | 38 | 0.0 | 3.2 | 0.00 | 0.18 | 0.00 | 83 | 1009.4 |
| 20260506081524 | 13 | 38 | 0.0 | 4.8 | 0.00 | 0.18 | 0.00 | 82 | 1009.2 |
| 20260506073018 | 15 | 283 | 0.0 | 3.2 | 0.00 | 0.18 | 0.00 | 79 | 1009.4 |
| 20260506071522 | 15 | 283 | 0.0 | 3.2 | 0.00 | 0.18 | 0.00 | 78 | 1009.3 |
| 20260506061520 | 16 | 283 | 0.0 | 3.2 | 0.00 | 0.18 | 0.00 | 77 | 1009.1 |
| 20260506044532 | 15 | 69 | 0.0 | 3.2 | 0.00 | 0.18 | 0.00 | 82 | 1009.2 |
| 20260506043029 | 15 | 69 | 1.6 | 3.2 | 0.00 | 0.18 | 0.00 | 81 | 1009.1 |
| 20260506041513 | 16 | 69 | 0.0 | 3.2 | 0.00 | 0.18 | 0.00 | 81 | 1008.8 |
| 20260506040028 | 15 | 69 | 1.6 | 3.2 | 0.00 | 0.18 | 0.00 | 81 | 1009.0 |
| 20260506034522 | 15 | 69 | 0.0 | 3.2 | 0.00 | 0.18 | 0.18 | 81 | 1009.0 |
| 20260506033028 | 15 | 69 | 3.2 | 4.8 | 0.00 | 0.18 | 0.18 | 83 | 1009.1 |
| 20260506031526 | 15 | 69 | 3.2 | 4.8 | 0.00 | 0.18 | 0.18 | 82 | 1009.0 |
| 20260506030013 | 16 | 114 | 0.0 | 1.6 | 0.00 | 0.18 | 0.18 | 80 | 1009.2 |
| 20260506024533 | 16 | 114 | 0.0 | 6.4 | 0.00 | 0.18 | 0.18 | 79 | 1009.1 |
| 20260506023024 | 16 | 44 | 0.0 | 3.2 | 0.00 | 0.18 | 0.18 | 77 | 1009.1 |
| 20260506021542 | 16 | 44 | 0.0 | 4.8 | 0.00 | 0.18 | 0.18 | 77 | 1009.1 |
| 20260506020028 | 16 | 44 | 1.6 | 3.2 | 0.00 | 0.18 | 0.18 | 76 | 1008.8 |
| 20260506014523 | 16 | 44 | 1.6 | 3.2 | 0.00 | 0.18 | 0.18 | 77 | 1009.2 |
| 20260506013024 | 16 | 44 | 3.2 | 4.8 | 0.00 | 0.18 | 0.18 | 78 | 1009.0 |
| 20260506011515 | 16 | 23 | 1.6 | 3.2 | 0.00 | 0.18 | 0.18 | 78 | 1008.9 |
| 20260506010013 | 16 | 23 | 0.0 | 4.8 | 0.00 | 0.18 | 0.18 | 79 | 1008.8 |
| 20260506004518 | 16 | 23 | 0.0 | 4.8 | 0.00 | 0.18 | 0.18 | 80 | 1008.6 |
| 20260506003020 | 16 | 23 | 1.6 | 3.2 | 0.00 | 0.18 | 0.18 | 79 | 1008.5 |
| 20260506001504 | 16 | 23 | 0.0 | 3.2 | 0.00 | 0.18 | 0.18 | 79 | 1008.7 |